Regional Weather Roundup
Issued by NWS

Home | Current Version | Previous Version | Text Only | Print | Product List | Glossary Off
Versions: 1 2 3 4 5 6 7 8 9 10 11 12 13 14 15 16 17 18 19 20 21 22 23 24 25 26 27 28 29 30 31 32 33 34 35 36 37 38 39 40 41 42 43 44 45 46 47 48 49 50

000
ASUS43 KMKX 221300
RWRWI

WISCONSIN REGIONAL WEATHER ROUNDUP
NATIONAL WEATHER SERVICE MILWAUKEE/SULLIVAN WI
700 AM CST MON DEC 22 2014

NOTE: "FAIR" INDICATES FEW OR NO CLOUDS BELOW 12,000 FEET WITH NO
SIGNIFICANT WEATHER AND/OR OBSTRUCTIONS TO VISIBILITY.

WIZ001-002-006>008-014>016-023>028-221400-
NORTHWEST WISCONSIN

CITY           SKY/WX    TMP DP  RH WIND       PRES   REMARKS
SUPERIOR ARPT  MIX PCPN  32  32 100 NE5       29.73R WCI  28
ASHLAND        CLOUDY    36  33  89 VRB3      29.77R
HAYWARD        CLOUDY    34  32  92 SE8G18    29.73S FOG     WCI  27
SIREN          CLOUDY    35  34  97 SE12      29.70S FOG     WCI  27
CUMBERLAND     CLOUDY    32  32 100 SE10      29.71S FOG     WCI  24
RICE LAKE      CLOUDY    34  34  97 SE12      29.74S FOG     WCI  26
CHETEK         CLOUDY    34  33  98 SE10      29.75R FOG     WCI  26
LADYSMITH      CLOUDY    34  33  96 SE12G17   29.78S FOG     WCI  26
EAU CLAIRE     NOT AVBL
MENOMONIE      CLOUDY    36  35  96 SE12      29.74S FOG     WCI  28
NEW RICHMOND   CLOUDY    36  36 100 SE8       29.70S FOG     WCI  29
OSCEOLA        RAIN      36  36 100 SE12G17   29.72S WCI  28
$$

WIZ003>005-009-010-017-018-221400-
NORTH CENTRAL WISCONSIN

CITY           SKY/WX    TMP DP  RH WIND       PRES   REMARKS
MANITOWISH WTR CLOUDY    32  32 100 S10       29.79R FOG     WCI  24
ARBOR VITAE    CLOUDY    34  32  94 S9        29.80R FOG     WCI  27
WOODRUFF       CLOUDY    34  32  94 S9        29.80R FOG     WCI  27
RHINELANDER    CLOUDY    31  30  96 S9        29.82S FOG     WCI  23
EAGLE RIVER    CLOUDY    32  32 100 S6        29.82S FOG     WCI  26
LAND O LAKES   CLOUDY    32  32  99 S7        29.82S FOG     WCI  26
PHILLIPS       CLOUDY    32  32 100 S10       29.77S FOG     WCI  24
TOMAHAWK       CLOUDY    32  31  96 SE3       29.82S FOG
MEDFORD        CLOUDY    32  31  97 SE13      29.79F FOG     WCI  22
MERRILL        CLOUDY    33  32  98 SE7       29.83S FOG     WCI  26
$$

WIZ029-030-035-036-043>047-221400-
CENTRAL WISCONSIN

CITY           SKY/WX    TMP DP  RH WIND       PRES   REMARKS
WAUSAU         CLOUDY    33  30  88 SE9       29.83S FOG     WCI  25
MOSINEE        CLOUDY    32  32 100 SE9       29.84S FOG     WCI  24
MARSHFIELD     CLOUDY    34  31  88 SE13      29.82S FOG     WCI  25
STEVENS POINT  CLOUDY    32  29  91 SE9       29.86S FOG     WCI  24
WAUPACA        CLOUDY    36  31  83 SE8       29.89S HAZE    WCI  29
WAUTOMA        CLOUDY    34  32  93 SE7       29.88S FOG     WCI  28
WISC RAPIDS    CLOUDY    34  29  82 SE7       29.85S WCI  28
CAMP DOUGLAS   NOT AVBL
$$

WIZ011>013-019>022-031-037>040-048>050-221400-
NORTHEAST WISCONSIN

CITY           SKY/WX    TMP DP  RH WIND       PRES   REMARKS
ANTIGO         CLOUDY    31  30  98 SE13      29.84S FOG     WCI  21
SHAWANO        CLOUDY    36  31  83 SE7       29.90S HAZE    WCI  30
OCONTO         CLOUDY    35  32  90 S6        29.92S WCI  30
STURGEON BAY   CLOUDY    36  30  80 S17       29.95F WCI  25
GREEN BAY      CLOUDY    35  32  88 S13       29.92S FOG     WCI  26
MANITOWOC      NOT AVBL
APPLETON       CLOUDY    34  30  86 SE9       29.90S WCI  26
CLINTONVILLE   CLOUDY    34  30  86 SE6       29.89S WCI  29
OSHKOSH        MIX PCPN  33  31  92 SE12      29.91R FOG     WCI  24
$$

WIZ032>034-041-042-053>061-221400-
SOUTHWEST WISCONSIN

CITY           SKY/WX    TMP DP  RH WIND       PRES   REMARKS
LA CROSSE      CLOUDY    38  32  79 SE12      29.78F WCI  30
SPARTA         CLOUDY    35  31  87 SE6       29.82S WCI  30
VIROQUA        CLOUDY    33  33 100 SE10      29.78F WCI  25
BOSCOBEL       CLOUDY    36  31  82 E3        29.82S HAZE
PRAIRIE DU CHI CLOUDY    35  32  87 E7        29.79F FOG     WCI  29
PLATTEVILLE    CLOUDY    34  32  92 SE13      29.82S WCI  25
$$

WIZ056-057-062-063-064-067-068-221400-
SOUTH CENTRAL WISCONSIN

CITY           SKY/WX    TMP DP  RH WIND       PRES   REMARKS
REEDSBURG      CLOUDY    33  32  93 SE8       29.84S WCI  27
BARABOO/DELLS  CLOUDY    33  31  92 S10       29.84S FOG     WCI  25
LONE ROCK      NOT AVBL
MINERAL POINT  CLOUDY    34  32  93 SE10      29.82S FOG     WCI  26
MADISON        CLOUDY    34  30  85 SE12      29.87S FOG     WCI  25
MIDDLETON      CLOUDY    35  32  90 SE10      29.87R WCI  27
WATERTOWN      MIX PCPN  32  32 100 SE8       29.90S WCI  25
MONROE         CLOUDY    32  32 100 SE10      29.85S FOG     WCI  24
JANESVILLE     CLOUDY    34  32  93 SE9       29.89S FOG     WCI  26
$$

WIZ051-052-058>065-066-070>072-221400-
SOUTHEAST WISCONSIN

CITY           SKY/WX    TMP DP  RH WIND       PRES   REMARKS
MILWAUKEE      CLOUDY    35  29  78 S13       29.95S WCI  26
WAUKESHA       CLOUDY    30  27  86 SE12      29.93S FOG     WCI  21
MILWAUKEE/TIMM CLOUDY    34  28  80 S6        29.95S WCI  29
RACINE         CLOUDY    35  30  82 SE10      29.96F WCI  27
BURLINGTON     CLOUDY    31  27  85 SE7       29.92F WCI  24
KENOSHA        CLOUDY    34  30  85 SE8       29.94F FOG     WCI  27
FOND DU LAC    LGT SNOW  33  30  88 SE10      29.91S FOG     WCI  25
SHEBOYGAN      CLOUDY    36  32  85 S9        29.94S WCI  29
WEST BEND      CLOUDY    32  28  86 SE6       29.93S WCI  26
JUNEAU         MIX PCPN  32  31  96 SE12      29.91S WCI  23
$$

LSZ147-162-221400-
LAKE SUPERIOR

STATION/POSITION TIME  TEMP    WIND        PRES    WAVE
                       AIR SEA DIR/SP/G            HT/PER
                 (UTC) (F)     (DEG/KT/KT) (MB)    (FT/S)
DEVILS ISLAND    1200   35     150/ 10/ 13 1008.6S
PORT WING        1240   36     150/  5/  9 1007.1F
SAXON HARBOR     1200   38     170/  4/ 11 1008.5
$$

LMZ867-665-643>646-221400-
LAKE MICHIGAN

STATION/POSITION TIME  TEMP    WIND        PRES    WAVE
                       AIR SEA DIR/SP/G            HT/PER
                 (UTC) (F)     (DEG/KT/KT) (MB)    (FT/S)
CHAMBERS ISLAND  1200   37     140/  5/ 11 1014.2S
NORTHPORT PIER   1200   36     150/ 12/ 18 1014.6S
SISTER BAY       1213          180/ 12/ 17   N/A
ALGOMA LAKESHORE 1215          210/ 21/ 26   N/A
KEWAUNEE LAKESHO 1200   37     180/ 16/ 18 1013.4S
SHEBOYGAN LAKESH 1200   37 36  160/ 20/ 22 1014.6R
PORT WASHINGTON  1240   37     180/ 11/ 18 1014.9S
MILWAUKEE LAKESH 1200   36     170/ 11/ 13   N/A
KENOSHA   LAKESH 1200   35     170/ 16/ 18 1014.2S
$$

TC  - TEMPERATURE IN CELSIUS
VSB - VISIBILITY IN STATUTE MILES
WCI - WIND CHILL INDEX
HX  - HEAT INDEX



USA.gov is the U.S. government's official web portal to all federal, state and local government web resources and services.